Pagina principale
METAR-TAF:

METAR-TAF

Aeroporti :

Trieste, Italia

latitudine: 45-39N, longitudine: 013-45E, altezza: 8 m

Osservazione

Il bollettino è stato emesso 1 ora e 5 minuti fa, alle 23:55 UTC
Vento 2 kt da direzioni variabili
Temperature 18°C
Umidità 77%
Pressione 1015 hPa

METAR: LIVT 272355Z AUTO VRB02KT //// 18/14 Q1015

Ora: 03:00 (01:00 UTC)


TAF: mancante

Osservazioni e previsioni meteorologiche di più di 4000 aeroporti (messaggi METAR e TAF).

Le stazioni disponibili sono rappresentate dai dischi gialli e rossi sulla carta.

Puntare il mouse per vedere il nome della stazione.

Clicca sopra per visualizzare le osservazioni e previsioni meteorologiche.

Per cambiare la mappa : fare clic sui pulsanti verdi con una croce nera per ingrandire, il pulsante verde con un trattino per diminuire, o sulla freccia verde per le mappe adiacenti.


METAR-TAF: